Wind_Speed
9 8 7 7 6 7 9 5 6 6 7 6 5 6 7 8 8 8 7 6 6 7 7 7 8 7 6 6 5 5 5 5 5 5 5 5 5 4 4 4 4 4 4 4 4 4 3 3 2
7 6 5 6 7 9 5 2 6 7 7 7 7 6 7 8 8 9 8 7 7 8 8 8 8 8 7 6 6 5 5 5 5 5 4 4 4 3 3 3 4 4 4 3 3 3 2 2 2
6 4 5 5 7 8 6 5 6 8 8 7 7 7 7 9 9 9 9 8 9 9 9 9 8 8 8 7 7 6 6 6 6 5 5 4 3 3 3 3 3 3 3 3 2 2 2 2 1
5 3 4 5 6 4 7 8 8 8 8 8 8 7 8 9 9 9 9 9 9 10 10 10 10 9 8 8 7 7 7 7 6 6 5 4 3 2 2 3 3 3 3 2 2 2 2 1 1
3 2 3 4 3 3 7 8 8 8 9 9 9 9 9 8 9 8 9 9 9 10 11 11 11 10 9 8 8 7 7 7 7 6 5 4 3 2 2 2 3 2 2 2 1 1 1 1 1
3 3 3 3 2 5 8 9 8 8 10 10 10 11 10 8 9 9 9 10 9 10 11 11 12 11 10 10 9 9 8 8 7 6 5 4 3 3 2 2 2 2 1 1 1 1 0 0 1
4 3 3 2 3 8 9 10 9 8 10 10 10 11 10 8 9 9 9 10 9 10 12 13 13 12 12 11 11 10 9 8 8 7 6 5 4 3 3 2 2 1 1 1 1 1 0 1 1
4 2 1 2 5 8 10 10 10 10 11 11 11 11 11 11 10 9 9 10 9 10 12 13 14 13 13 13 12 12 11 10 9 8 7 6 4 4 3 3 2 1 1 1 1 0 1 1 2
4 3 2 3 5 9 11 10 10 11 12 12 12 12 12 12 12 11 11 11 11 10 13 14 14 14 14 14 14 13 12 11 10 9 7 7 5 5 4 4 3 2 1 1 0 0 1 2 2
4 4 3 3 8 11 12 11 10 11 13 14 12 12 13 13 12 12 12 12 12 11 12 14 14 16 16 16 16 15 15 13 12 10 9 7 6 5 5 4 4 3 1 1 0 1 1 2 2
6 7 6 8 12 12 11 11 10 11 15 16 14 12 13 13 13 13 13 12 12 12 13 14 16 17 17 17 18 17 16 15 14 12 10 8 7 6 5 5 4 4 2 1 1 1 1 2 2
8 10 11 11 12 12 11 10 11 12 15 17 17 15 14 14 14 14 14 13 12 12 12 14 15 16 18 19 18 19 18 16 15 13 11 9 8 7 6 6 5 5 3 2 2 2 2 2 2
11 11 11 11 12 11 11 10 11 12 14 16 17 16 14 14 14 16 15 14 13 13 13 13 14 16 17 18 19 20 19 18 16 14 12 11 9 8 7 7 6 6 5 3 3 2 2 2 2
11 12 11 11 11 11 12 12 12 13 13 15 16 15 15 15 16 16 15 14 14 14 14 14 14 15 16 18 20 20 20 19 17 16 14 12 10 10 8 7 7 6 5 4 3 3 3 2 1
12 12 11 10 10 10 12 12 14 14 13 14 15 16 15 15 16 17 16 15 15 15 15 15 15 15 16 17 19 19 20 19 18 17 15 13 11 10 9 7 7 5 5 5 4 3 2 2 1
10 10 9 9 10 11 13 13 14 15 13 14 15 17 16 16 16 17 16 15 14 15 15 16 16 16 17 17 18 19 19 20 18 17 15 13 12 10 9 8 7 6 6 5 4 3 2 2 1
8 9 9 10 11 12 14 15 14 15 13 15 16 17 17 16 17 17 16 15 13 14 15 16 17 17 17 18 18 17 20 21 20 18 16 15 13 11 10 9 7 6 6 5 4 3 2 1 0
10 10 11 12 11 13 15 15 15 15 14 15 16 17 17 17 17 16 15 15 14 15 15 16 17 18 18 18 18 17 20 21 20 18 17 16 15 13 11 10 8 7 6 6 5 5 3 2 1
12 12 13 13 13 14 16 15 14 15 15 17 17 17 17 16 16 15 14 14 14 15 15 16 16 18 19 18 18 18 18 20 20 19 18 17 16 14 12 10 9 8 7 6 6 5 4 3 2
15 15 15 15 15 16 16 16 13 15 15 15 18 17 16 17 15 14 14 14 13 13 14 15 16 17 18 18 18 18 19 19 19 19 18 18 17 15 13 12 10 9 8 7 6 5 4 4 3
17 16 16 15 14 15 15 14 14 16 16 15 16 17 16 17 15 14 14 14 14 14 14 14 15 17 18 19 18 18 19 19 18 18 19 19 18 17 15 13 12 11 9 8 7 6 5 5 4
17 15 15 15 15 15 14 15 15 16 18 15 15 16 16 16 15 14 13 13 13 13 13 14 15 16 17 17 17 18 19 20 19 19 19 19 18 17 16 15 13 12 10 9 9 8 7 7 5
16 16 16 15 16 16 14 15 15 16 18 15 13 15 16 15 14 13 13 12 12 12 12 13 15 15 16 16 17 17 19 20 20 20 19 19 19 18 16 16 14 13 12 11 10 10 9 8 7
16 16 15 14 14 14 13 15 16 18 17 16 16 15 16 14 13 12 12 11 11 11 12 12 13 14 14 15 16 17 18 20 20 20 19 18 18 18 17 16 16 15 14 13 12 12 11 10 9
16 15 14 12 12 13 12 15 16 16 16 18 18 17 15 13 12 11 11 10 10 10 10 10 11 12 13 14 15 17 18 19 20 20 19 19 19 19 18 18 17 16 15 15 14 14 13 12 12
15 15 14 14 14 14 14 16 14 13 16 17 17 16 15 13 12 11 10 10 9 9 8 9 9 11 12 13 15 16 18 19 20 20 19 19 19 19 19 18 18 17 17 16 16 15 15 14 14
16 15 14 16 16 17 17 16 12 13 16 15 16 15 14 13 12 10 10 9 9 8 8 8 9 9 10 11 13 15 17 18 19 19 19 19 18 18 19 19 19 19 18 18 18 17 16 15 16
17 16 16 18 19 18 17 16 16 17 16 15 15 15 15 14 13 10 9 9 9 8 7 7 7 8 9 10 12 13 15 16 18 19 18 18 18 18 19 19 20 20 19 19 18 18 17 17 17
17 18 19 20 19 19 18 19 20 18 17 16 15 15 15 14 13 11 9 9 9 9 7 7 7 8 9 10 10 11 13 15 17 18 19 19 19 19 19 19 20 20 20 20 19 19 19 18 18
17 19 20 22 21 21 20 20 20 18 17 16 16 15 16 15 14 11 9 9 9 9 8 7 7 7 7 8 9 10 11 14 16 18 19 20 19 19 20 20 20 21 21 21 20 20 20 20 20
Wind_Direction
33 39 43 50 50 51 56 29 331 326 321 322 314 295 285 280 275 267 262 243 229 221 210 202 195 190 191 195 199 200 197 195 185 173 160 149 137 128 116 108 108 107 106 107 108 108 108 108 111
31 37 46 55 42 37 32 344 317 320 330 334 328 311 295 294 289 278 274 258 242 232 219 211 206 199 199 202 208 213 212 208 196 184 170 159 148 134 118 111 109 104 103 105 106 107 110 119 131
29 29 49 53 41 22 349 331 319 322 331 335 332 323 305 301 294 279 270 260 247 237 227 221 217 211 207 210 218 224 220 216 206 193 182 169 158 143 124 117 112 105 102 98 100 104 108 119 142
19 17 54 57 54 9 319 317 318 315 325 330 330 320 308 305 299 285 270 258 248 239 230 226 223 220 215 217 221 225 222 219 211 199 189 178 170 160 142 127 117 112 105 97 92 99 113 121 135
360 1 37 60 49 341 302 298 305 315 320 321 324 316 306 306 303 293 275 262 252 242 232 227 226 225 220 221 222 225 224 222 217 209 202 196 193 189 174 144 128 120 108 94 91 95 108 121 173
328 339 22 48 22 298 287 295 305 311 308 314 318 314 306 311 303 294 283 269 258 245 233 226 224 224 223 223 225 226 227 229 226 222 216 209 201 200 188 162 148 134 111 84 81 92 149 222 253
310 325 23 20 289 276 283 292 298 299 301 309 308 302 305 313 304 296 288 278 265 248 236 229 226 224 223 223 226 228 229 231 230 229 228 223 217 212 203 189 182 169 119 77 81 92 190 255 274
297 283 194 225 253 268 282 289 294 296 298 304 305 299 310 314 307 296 287 284 269 248 238 232 230 226 224 225 227 229 230 232 232 234 237 234 235 230 223 212 206 202 163 114 93 53 291 290 288
278 245 208 206 250 266 275 282 287 295 298 300 300 301 311 310 308 296 287 287 277 257 240 234 231 228 226 225 226 229 232 234 235 238 241 241 243 242 234 225 218 215 208 181 216 304 303 297 291
256 241 218 232 245 256 270 283 285 298 294 291 296 305 307 308 306 301 292 288 281 267 249 236 234 231 227 226 227 229 231 234 236 238 241 245 246 244 238 230 223 220 215 201 216 284 299 298 293
254 248 244 242 253 258 269 281 286 284 289 290 294 306 305 306 306 305 298 291 283 268 255 242 238 235 230 228 228 228 230 232 236 239 241 244 243 241 242 234 223 219 221 223 238 287 307 286 274
255 248 243 244 250 258 265 273 280 283 288 299 305 305 304 303 304 304 299 289 276 268 260 247 238 238 234 230 231 229 230 232 234 237 238 241 247 248 243 237 229 225 229 236 256 282 300 288 289
262 261 255 256 261 263 266 267 274 283 291 297 301 302 308 305 302 302 299 288 279 266 263 253 242 241 236 232 234 232 229 231 233 236 236 239 247 250 244 239 237 234 237 243 261 278 292 293 287
257 259 257 254 259 266 271 269 270 276 283 293 299 300 303 301 301 302 298 287 281 268 261 253 245 245 241 238 236 234 230 230 230 233 236 237 244 249 246 243 240 234 236 245 258 272 284 299 299
255 254 256 257 258 268 278 278 280 277 276 289 297 300 301 300 300 301 297 288 280 271 265 257 249 246 247 242 239 236 233 231 231 234 234 237 242 244 244 244 240 240 243 249 259 278 283 286 279
257 260 265 270 264 266 277 279 280 282 282 292 298 300 301 300 301 300 297 288 279 270 265 260 252 249 249 246 245 237 232 229 227 229 233 237 236 238 242 242 244 244 247 251 257 269 273 288 279
256 264 266 265 261 266 276 281 284 285 290 299 299 299 298 299 301 299 295 287 279 271 266 261 254 252 250 246 247 241 234 229 226 227 231 232 232 235 239 237 241 244 245 245 251 254 262 266 185
248 253 257 257 254 260 272 281 288 288 293 297 297 297 297 300 298 296 293 285 278 272 268 260 257 252 249 244 242 244 236 227 226 227 228 229 229 232 235 233 233 236 238 245 251 249 248 236 231
237 241 248 249 249 257 270 276 282 286 291 292 294 294 296 301 300 297 292 285 280 274 268 259 258 252 248 243 241 240 235 229 227 226 226 227 228 229 231 232 232 232 238 246 249 242 236 246 259
237 237 244 248 251 254 266 273 279 283 283 285 293 297 298 300 299 298 293 288 283 274 265 260 255 250 244 242 243 238 235 230 228 227 226 226 228 228 231 231 230 232 237 242 243 239 239 249 255
239 238 242 247 254 260 267 275 281 277 285 287 294 298 298 300 297 294 293 289 283 277 268 256 250 247 243 244 243 239 235 229 227 227 227 226 227 230 231 227 227 230 233 236 236 238 242 249 247
238 235 242 248 254 260 266 272 279 284 288 284 294 300 300 300 295 293 292 291 287 278 268 258 249 246 244 243 241 238 233 229 226 226 227 227 228 227 227 227 226 229 232 235 235 239 245 251 252
236 234 240 247 249 250 256 268 276 283 290 291 291 296 300 301 294 292 292 293 287 278 273 263 251 247 244 242 242 237 228 225 225 226 227 227 227 227 229 229 228 228 233 235 237 242 246 250 253
234 236 240 243 246 253 257 262 265 276 288 296 297 297 299 299 292 291 292 291 287 278 272 267 256 249 243 239 239 234 228 225 226 228 228 227 227 228 228 229 230 230 233 237 240 244 247 250 255
233 232 235 242 253 261 263 267 262 270 286 292 295 297 300 300 292 290 290 290 288 284 275 266 260 251 241 237 236 232 227 225 225 227 228 228 228 226 227 231 230 231 234 238 242 245 247 249 255
235 230 232 244 259 263 266 260 255 270 283 286 291 292 296 298 293 290 288 285 283 284 278 271 261 252 242 239 235 230 225 223 222 225 225 226 226 226 228 230 230 233 236 241 243 246 248 249 254
229 233 232 247 262 277 283 283 271 267 278 284 287 286 289 294 294 294 289 279 278 281 279 274 263 252 243 238 232 227 224 221 219 222 225 224 224 226 228 230 232 233 238 243 245 248 249 251 256
224 225 231 236 252 260 268 275 265 270 273 281 283 284 287 289 292 292 287 278 276 279 281 277 266 255 244 233 228 226 222 219 219 221 221 222 225 229 230 236 236 237 240 244 248 249 250 254 256
232 226 230 237 242 250 259 267 268 267 274 278 279 280 284 284 285 288 283 279 276 275 278 272 262 254 243 233 230 225 221 218 219 221 223 227 230 232 235 238 239 241 242 244 248 249 250 253 255
234 234 236 240 242 243 249 263 270 278 281 277 275 277 279 278 279 281 279 275 274 273 276 273 264 258 244 231 226 225 225 225 224 224 227 229 233 235 237 241 241 243 244 245 249 249 249 253 257
Height
5885 5884 5884 5884 5883 5882 5881 5884 5883 5881 5880 5879 5879 5878 5877 5877 5877 5878 5876 5877 5878 5879 5880 5881 5882 5882 5883 5884 5885 5885 5886 5886 5886 5886 5886 5886 5886 5887 5887 5887 5887 5887 5887 5887 5887 5887 5887 5887 5887
5885 5885 5885 5884 5883 5882 5883 5883 5883 5881 5881 5879 5879 5878 5877 5876 5876 5876 5876 5877 5878 5878 5880 5881 5882 5883 5883 5884 5885 5886 5886 5886 5887 5887 5887 5887 5887 5887 5887 5887 5888 5887 5887 5888 5888 5887 5888 5888 5888
5885 5885 5884 5884 5883 5884 5884 5883 5882 5881 5881 5880 5879 5878 5878 5877 5877 5876 5876 5877 5878 5878 5879 5880 5881 5882 5883 5884 5885 5886 5886 5887 5887 5887 5887 5887 5888 5888 5888 5888 5888 5888 5888 5888 5888 5888 5888 5888 5888
5885 5885 5884 5885 5884 5886 5884 5883 5882 5881 5881 5880 5879 5878 5876 5877 5876 5876 5875 5876 5877 5877 5878 5879 5880 5882 5883 5884 5885 5886 5886 5887 5887 5887 5888 5888 5888 5888 5888 5888 5889 5889 5889 5889 5889 5889 5888 5888 5889
5884 5884 5884 5883 5885 5886 5886 5884 5882 5881 5881 5879 5878 5877 5875 5875 5875 5875 5874 5875 5876 5876 5877 5878 5879 5881 5882 5883 5884 5885 5886 5887 5887 5887 5888 5888 5888 5888 5889 5889 5889 5889 5889 5889 5889 5889 5889 5889 5889
5884 5883 5882 5882 5885 5887 5886 5884 5882 5881 5880 5879 5877 5876 5874 5874 5874 5874 5873 5874 5875 5875 5876 5877 5878 5880 5881 5883 5884 5885 5886 5887 5887 5888 5888 5888 5888 5889 5889 5889 5889 5889 5889 5889 5889 5889 5889 5889 5889
5884 5883 5882 5883 5886 5887 5886 5883 5882 5881 5879 5877 5877 5874 5872 5873 5874 5873 5872 5872 5873 5874 5874 5875 5877 5878 5880 5881 5883 5884 5885 5886 5887 5888 5888 5888 5888 5889 5889 5889 5890 5889 5889 5890 5889 5889 5889 5889 5889
5882 5883 5882 5884 5885 5886 5885 5883 5881 5880 5878 5877 5875 5873 5872 5873 5872 5871 5871 5871 5871 5872 5873 5874 5875 5877 5878 5880 5882 5883 5885 5886 5887 5887 5888 5888 5888 5889 5889 5889 5889 5890 5890 5890 5890 5890 5889 5889 5890
5880 5882 5881 5883 5884 5885 5883 5882 5881 5879 5877 5876 5874 5872 5871 5871 5870 5870 5870 5869 5869 5870 5870 5871 5873 5875 5876 5878 5880 5882 5883 5884 5886 5887 5887 5888 5888 5889 5889 5889 5889 5889 5890 5890 5890 5890 5890 5890 5890
5879 5880 5881 5882 5883 5883 5881 5881 5880 5878 5876 5873 5872 5870 5870 5869 5869 5868 5868 5867 5867 5867 5867 5869 5871 5872 5874 5876 5878 5880 5881 5883 5885 5886 5887 5887 5888 5888 5889 5889 5889 5889 5890 5890 5890 5890 5890 5890 5890
5877 5878 5878 5880 5881 5880 5880 5879 5878 5877 5874 5870 5869 5867 5868 5867 5867 5866 5865 5865 5864 5864 5865 5867 5868 5870 5872 5874 5875 5877 5879 5881 5883 5885 5886 5887 5887 5888 5888 5889 5889 5889 5890 5890 5890 5890 5890 5890 5890
5874 5875 5876 5877 5877 5877 5878 5878 5877 5875 5873 5870 5867 5866 5866 5865 5865 5864 5863 5862 5862 5861 5863 5864 5866 5867 5869 5871 5873 5875 5878 5880 5881 5883 5884 5886 5887 5887 5888 5888 5889 5889 5890 5890 5890 5890 5890 5890 5890
5871 5872 5873 5874 5874 5874 5875 5875 5874 5873 5871 5868 5866 5864 5863 5862 5862 5861 5860 5859 5859 5859 5860 5861 5863 5865 5866 5868 5870 5873 5875 5878 5880 5881 5883 5884 5886 5886 5887 5888 5888 5889 5890 5890 5890 5890 5890 5890 5890
5868 5869 5870 5871 5872 5872 5872 5872 5871 5869 5867 5866 5865 5863 5862 5861 5860 5859 5858 5857 5856 5856 5857 5859 5860 5862 5864 5865 5867 5870 5873 5875 5878 5879 5881 5883 5884 5885 5886 5887 5888 5888 5889 5889 5890 5890 5890 5890 5890
5865 5866 5867 5868 5868 5869 5870 5869 5868 5865 5865 5864 5863 5861 5860 5859 5858 5857 5855 5855 5854 5854 5855 5857 5858 5859 5861 5862 5864 5867 5870 5872 5875 5877 5879 5881 5882 5883 5885 5886 5887 5887 5888 5889 5889 5890 5889 5889 5889
5862 5863 5864 5866 5866 5866 5868 5867 5866 5862 5861 5861 5860 5859 5858 5857 5855 5854 5853 5852 5851 5852 5853 5854 5855 5857 5858 5860 5862 5863 5866 5869 5872 5875 5877 5879 5881 5882 5883 5885 5886 5887 5888 5888 5889 5889 5889 5889 5889
5859 5861 5862 5864 5864 5864 5865 5863 5862 5861 5859 5858 5858 5857 5855 5854 5853 5851 5850 5849 5849 5849 5850 5851 5851 5853 5855 5857 5858 5860 5862 5865 5868 5872 5875 5877 5879 5881 5882 5884 5885 5886 5887 5888 5888 5889 5889 5889 5889
5857 5859 5860 5860 5861 5862 5862 5861 5860 5858 5857 5856 5856 5854 5853 5852 5850 5848 5847 5846 5846 5846 5847 5848 5848 5850 5852 5854 5855 5857 5859 5861 5864 5869 5872 5875 5877 5879 5880 5882 5883 5885 5886 5887 5887 5888 5888 5888 5889
5854 5856 5857 5859 5859 5860 5859 5859 5858 5856 5855 5854 5853 5852 5850 5849 5846 5845 5844 5843 5843 5843 5843 5844 5845 5846 5848 5850 5852 5855 5856 5858 5862 5866 5870 5873 5875 5877 5879 5881 5882 5883 5885 5886 5886 5887 5888 5888 5889
5850 5853 5855 5856 5855 5856 5856 5855 5855 5854 5852 5851 5850 5849 5847 5846 5844 5843 5841 5840 5840 5840 5840 5840 5841 5843 5845 5847 5849 5851 5853 5856 5860 5863 5867 5870 5872 5875 5877 5879 5880 5882 5883 5884 5885 5886 5887 5888 5888
5847 5849 5851 5852 5852 5853 5853 5852 5852 5850 5849 5848 5847 5846 5844 5843 5841 5840 5838 5837 5837 5837 5836 5836 5838 5839 5841 5843 5845 5848 5850 5853 5857 5861 5864 5867 5869 5872 5874 5876 5878 5880 5881 5883 5884 5885 5886 5887 5888
5843 5846 5847 5848 5849 5849 5850 5849 5847 5846 5845 5843 5843 5842 5841 5839 5838 5837 5836 5835 5834 5833 5833 5833 5834 5835 5837 5839 5841 5844 5847 5851 5854 5858 5861 5864 5866 5869 5871 5874 5876 5877 5879 5881 5882 5884 5885 5886 5887
5840 5842 5843 5845 5845 5846 5846 5845 5845 5843 5841 5839 5839 5839 5838 5837 5835 5834 5833 5832 5831 5831 5830 5830 5831 5832 5833 5835 5838 5841 5844 5848 5851 5854 5857 5860 5863 5866 5869 5871 5873 5875 5877 5879 5880 5882 5883 5884 5885
5836 5838 5840 5841 5842 5842 5843 5842 5841 5840 5839 5838 5837 5836 5835 5835 5834 5833 5831 5830 5829 5828 5828 5828 5828 5829 5830 5832 5835 5837 5841 5844 5848 5851 5854 5857 5860 5863 5865 5868 5870 5872 5874 5876 5878 5880 5881 5882 5883
5833 5836 5837 5838 5838 5839 5839 5838 5838 5838 5838 5837 5836 5835 5833 5833 5832 5831 5830 5829 5827 5827 5826 5826 5826 5827 5828 5829 5832 5834 5837 5841 5844 5848 5851 5854 5857 5860 5862 5865 5867 5869 5872 5873 5875 5877 5878 5879 5880
5830 5832 5835 5836 5835 5834 5834 5834 5833 5835 5834 5834 5834 5833 5832 5831 5830 5829 5828 5827 5826 5825 5824 5824 5824 5824 5825 5827 5829 5831 5834 5837 5841 5845 5848 5851 5854 5856 5859 5862 5864 5866 5868 5870 5872 5874 5875 5877 5878
5827 5828 5832 5833 5832 5832 5831 5830 5828 5830 5831 5831 5831 5831 5830 5829 5828 5827 5826 5825 5824 5824 5823 5823 5823 5823 5823 5824 5826 5828 5831 5835 5838 5841 5844 5847 5850 5853 5855 5858 5860 5862 5865 5867 5868 5870 5872 5873 5874
5823 5826 5828 5829 5830 5830 5830 5828 5826 5826 5827 5828 5828 5827 5827 5827 5826 5825 5824 5823 5823 5822 5822 5822 5821 5822 5822 5823 5825 5827 5829 5832 5835 5838 5841 5844 5847 5849 5852 5854 5856 5859 5861 5863 5865 5866 5868 5869 5870
5820 5822 5823 5825 5826 5827 5827 5827 5822 5823 5824 5824 5824 5824 5825 5825 5824 5823 5823 5822 5821 5821 5821 5821 5820 5821 5821 5822 5824 5825 5827 5830 5832 5835 5838 5841 5843 5846 5848 5850 5852 5855 5857 5859 5860 5862 5863 5864 5865
5816 5817 5819 5820 5821 5822 5822 5824 5819 5820 5819 5820 5820 5820 5822 5822 5822 5821 5821 5820 5820 5820 5820 5819 5819 5820 5820 5821 5822 5823 5825 5827 5830 5832 5835 5837 5840 5842 5844 5846 5848 5850 5852 5854 5855 5857 5858 5859 5860